0 RELAY 1 (A-15) 1 00503U 62068A 20357.59575022 -.00000017 00000-0 00000-0 0 9991 2 00503 47.5167 107.9100 2844995 309.9655 37.6013 7.78153179649586 0 TELSTAR 2 (A-41) 1 00573U 63013A 20357.32721399 -.00000064 00000-0 -74075-3 0 9999 2 00573 42.7689 297.8199 4009739 232.7454 333.4045 6.39254267458044 0 VELA 1 1 00692U 63039C 20360.35230247 -.00000675 00000-0 00000-0 0 9994 2 00692 15.0217 315.7050 5478441 258.3018 0.7099 0.22140801 8759 0 RELAY 2 1 00737U 64003A 20357.18454827 -.00000011 00000-0 00000-0 0 9999 2 00737 46.4702 79.9917 2591839 295.9287 39.7391 7.39528044537901 0 ELEKTRON 1 1 00746U 64006A 20357.31685009 .00000338 00000-0 97247-4 0 9999 2 00746 60.8375 4.5826 3042205 75.2666 316.2029 9.03807691885660 0 ELEKTRON 3 1 00829U 64038A 20357.48424122 .00000408 00000-0 13145-3 0 9993 2 00829 60.8154 74.4856 2972303 176.3713 186.5237 9.14139989831763 0 OPS 3662 (VELA 3) 1 00836U 64040A 20358.21451771 -.00000049 00000-0 00000-0 0 9991 2 00836 25.1227 228.9258 8624977 258.1419 359.7224 0.23913796 6207 0 OPS 3674 (VELA 4) 1 837U 64040B 20357.53073441 .00000364 00000-0 00000+0 0 9998 2 837 42.0773 159.5072 4694394 315.5572 359.3891 0.24002597 49515 0 LES 2 1 01360U 65034B 20357.19392775 -.00000022 00000-0 00000-0 0 9993 2 01360 32.1235 94.7486 3963720 94.5643 310.5447 4.64816881944846 0 OPS 6577 (VELA 5) 1 01458U 65058A 20351.27402577 -.00001491 00000-0 00000-0 0 9993 2 01458 21.0283 3.5642 4948828 267.8821 35.7582 0.21341795 7787 0 INTELSAT 2-F1 1 02514U 66096A 20357.16475104 -.00000506 00000-0 00000-0 0 9996 2 02514 18.0755 71.7596 6397422 206.8332 96.3536 2.00516132 54643 0 OPS 6638 (VELA 7) 1 02765U 67040A 20359.04527120 -.00001284 00000-0 00000-0 0 9993 2 02765 28.2255 40.3315 4623239 207.0104 0.9839 0.21486324 9216 0 OPS 6679 (VELA 8) 1 02766U 67040B 20360.60123720 -.00001198 00000-0 00000-0 0 9990 2 02766 25.4422 27.6661 4712522 36.2315 0.8053 0.21344897 1233 0 OV1-13 1 03173U 68026A 20357.31192405 -.00000038 00000-0 -76556-4 0 9994 2 03173 99.9952 107.6510 3814780 84.7720 316.6971 7.25389644392935 0 OV1-14 1 03174U 68026B 20357.28368760 .00000258 00000-0 45546-3 0 9996 2 03174 100.0270 110.5907 4005857 345.7002 31.0551 6.96309504336863 0 OV1-19 1 03825U 69025C 20356.99060556 .00000028 00000-0 36697-4 0 9991 2 03825 104.6908 194.4856 2692627 285.7010 46.5386 9.55911229793613 0 COSMOS 520 1 6192U 72072A 20357.53685508 .00000007 00000-0 00000+0 0 9999 2 6192 72.8688 293.9324 4302848 250.5705 285.8147 2.01322103354858 0 OPS 7724 1 06791U 73056A 20356.87350854 -.00000285 00000-0 -34522-2 0 9995 2 06791 62.2567 296.8313 7276084 263.2722 17.2069 2.00681617 9424 0 COSMOS 606 1 6916U 73084A 20357.99668007 -.00000474 00000-0 00000+0 0 9991 2 6916 71.6856 157.6155 5838015 193.7388 135.4760 2.00641332345353 0 MOLNIYA 2-9 1 07276U 74026A 20357.16325413 -.00000160 00000-0 00000-0 0 9991 2 07276 64.1615 309.0141 6739991 286.6677 13.4849 2.45096049236066 0 MOLNIYA 2-10 1 07376U 74056A 20357.47653178 -.00000054 00000-0 00000-0 0 9993 2 07376 63.6295 149.5284 6677894 291.0389 12.6315 2.01199001339464 0 COSMOS 706 1 07625U 75007A 20357.02960064 .00000547 00000-0 00000-0 0 9999 2 07625 66.5508 334.5050 6099337 14.0586 357.2145 2.00330333196250 0 MOLNIYA 1-29 1 07780U 75036A 20356.86198675 .00000004 00000-0 -50216-2 0 9990 2 07780 63.1484 283.8025 7274244 289.2084 9.8245 2.00628509334731 0 MOLNIYA 2-14 1 08195U 75081A 20355.83310365 .00000676 00000-0 64669-2 0 9990 2 08195 63.2383 252.7541 7165841 293.8347 9.4919 2.02099863331923 0 MOLNIYA 1-32 1 08601U 76006A 20357.08528987 -.00000505 00000-0 23863-3 0 9994 2 08601 62.9292 19.9369 7423212 280.9014 10.6344 1.99938404 41829 0 COSMOS 862 1 09495U 76105A 20357.40252103 -.00000610 00000-0 00000-0 0 9998 2 09495 69.6979 164.0879 5849425 249.8306 40.5774 2.00475314201498 0 MOLNIYA 1-36 1 09880U 77021A 20357.13994991 .00001666 00000-0 81206-3 0 9993 2 09880 62.8608 349.8501 7450732 286.9027 9.1654 2.00638872218528 0 ESA/GOES 1 09931U 77029A 20357.24609854 -.00000141 00000-0 00000-0 0 9999 2 09931 27.7257 49.5478 6604457 62.2172 348.6553 1.96173987312543 0 COSMOS 917 1 10059U 77047A 20357.19279021 .00000519 00000-0 00000-0 0 9993 2 10059 62.6586 162.2764 7243107 43.1890 354.7779 2.00682092318909 0 COSMOS 931 1 10150U 77068A 20357.29638892 .00000816 00000-0 00000-0 0 9994 2 10150 68.7118 168.7382 6126419 18.7002 108.7286 2.00607607318587 0 MOLNIYA 3-8 1 10455U 77105A 20357.35525938 .00001444 00000-0 39398-2 0 9999 2 10455 62.4661 82.6507 7332776 278.3065 11.9368 2.00521256316265 0 MOLNIYA 1-40 1 10925U 78055A 20356.91262622 .00000376 00000-0 00000-0 0 9994 2 10925 62.5639 122.9271 7099603 278.6752 13.4136 2.00504262311807 0 COSMOS 1024 1 10970U 78066A 20357.28235176 .00000668 00000-0 00000+0 0 9994 2 10970 62.8020 249.2344 6870750 30.2950 355.7941 2.00599286311254 0 MOLNIYA 3-10 1 11057U 78095A 20356.92951284 -.00000148 00000-0 -31973-4 0 9991 2 11057 62.8261 243.4470 5905241 302.4995 13.7229 4.09802187361501 0 GORIZONT 1 1 11158U 78118A 20358.00347024 -.00000216 00000-0 00000+0 0 9998 2 11158 11.7218 227.4190 3577674 251.2322 67.2856 1.00252535102841 0 AYAME 1 (ECS 1) 1 11261U 79009A 20357.33875969 -.00000103 00000-0 00000-0 0 9998 2 11261 10.0261 50.1394 3628318 275.8463 66.6271 1.68579065142395 0 COSMOS 1109 1 11417U 79058A 20353.77330216 -.00000757 00000-0 00000-0 0 9995 2 11417 71.0277 288.5309 5562212 269.9665 29.8055 2.01391819193434 0 COSMOS 1124 1 11509U 79077A 20356.95841625 -.00000800 00000-0 00000-0 0 9991 2 11509 62.8021 204.9798 7023810 43.6025 354.1894 2.00884801303176 0 SATCOM 3 1 11635U 79101A 20357.45671034 -.00000072 00000-0 00000-0 0 9991 2 11635 8.8927 288.4110 4802073 79.2616 197.5933 1.82528284187408 0 AYAME 2 (ECS-2) 1 11715U 80018A 20357.37658340 -.00000045 00000-0 00000-0 0 9995 2 11715 6.9628 203.6839 4348877 338.7161 252.8434 1.75494118199871 0 COSMOS 1191 1 11871U 80057A 20356.87597390 .00000528 00000-0 00000-0 0 9997 2 11871 65.7581 238.6657 5939393 46.8731 349.5830 2.00874523203210 0 MOLNIYA 3-13 1 11896U 80063A 20356.64231194 .00000451 00000-0 00000-0 0 9998 2 11896 62.5895 204.8860 7081107 276.0154 14.3622 2.00567997296223 0 COSMOS 1217 1 12032U 80085A 20355.37334424 -.00000181 00000-0 00000-0 0 9995 2 12032 69.8248 284.9654 6275385 311.3443 9.5623 2.01045170241923 0 COSMOS 1223 1 12078U 80095A 20357.58566632 .00000330 00000-0 00000+0 0 9993 2 12078 70.7306 125.5932 5520127 6.7562 9.0430 2.00703650293427 0 OPS 5805 1 12093U 80100A 20357.03807683 -.00000803 00000-0 00000+0 0 9997 2 12093 63.5695 61.5952 6990968 277.4939 14.4978 2.00615599 11953 0 MOLNIYA 1-49 1 12156U 81009A 20356.68433385 -.00000900 00000-0 -24710-3 0 9997 2 12156 61.8497 245.5635 7193640 255.0299 21.6401 2.05709618210324 0 KIKU 3 (ETS 4) 1 12295U 81012A 20358.01691066 .00007337 00000-0 93561-3 0 9995 2 12295 28.3917 235.4933 5020245 73.6097 334.3098 5.60630244525192 0 COSMOS 1247 1 12303U 81016A 20356.15677870 .00000884 00000-0 00000-0 0 9992 2 12303 66.5354 156.2585 6633378 26.2483 355.8006 2.02489492294599 0 COSMOS 1261 1 12376U 81031A 20357.78790405 .00000652 00000-0 00000+0 0 9991 2 12376 68.2474 214.8097 5751673 40.2641 350.6486 2.00788354187289 0 CAT 3 1 12546U 81057C 20358.14053690 .00008762 00000-0 57454-3 0 9996 2 12546 10.1128 259.8783 6034117 57.9811 346.8643 4.03984629327054 0 DYNAMICS EXPLORER 1 1 12624U 81070A 20356.75811510 .00000017 00000-0 91048-4 0 9999 2 12624 90.2965 35.4106 6225256 153.7361 259.7092 3.52512348654519 0 COSMOS 1285 1 12627U 81071A 20357.39011735 .00000532 00000-0 00000-0 0 9991 2 12627 68.0163 220.4518 5825303 40.4355 81.6753 1.98063981206837 0 COSMOS 1305 1 12818U 81088A 20357.37431259 -.00000026 00000-0 17320-3 0 9991 2 12818 63.0874 1.0336 4729310 224.0236 86.8588 5.46080494783379 0 COSMOS 1317 1 12933U 81108A 20357.09870109 -.00000391 00000-0 00000-0 0 9991 2 12933 71.5869 189.8389 5236103 18.7848 123.9649 2.00262783286154 0 CAT 4 1 13011U 81122B 20357.28994694 .00000475 00000-0 21997-3 0 9995 2 13011 10.5534 302.1353 6600701 54.6477 350.4491 3.15643729296379 0 MOLNIYA 1-52 1 13012U 81123A 20356.48042340 -.00001542 00000-0 00000-0 0 9996 2 13012 63.1426 0.3872 7294697 249.0500 23.7292 2.00743726285680 0 MOLNIYA 1-53 1 13070U 82015A 20356.90860023 .00000769 00000-0 79257-3 0 9996 2 13070 62.5151 290.1038 7378188 278.6656 11.6221 2.00884716284371 0 COSMOS 1341 1 13080U 82016A 20356.48271648 .00000770 00000-0 00000-0 0 9999 2 13080 67.6631 129.0948 6575560 10.6962 358.1534 2.00861741194567 0 COSMOS 1348 1 13124U 82029A 20356.58162244 .00000034 00000-0 00000+0 0 9996 2 13124 71.8159 220.7170 4832588 29.6696 356.6205 2.00278632283245 0 COSMOS 1367 1 13205U 82045A 20357.37080145 -.00000437 00000-0 00000-0 0 9990 2 13205 70.7614 153.6110 5632517 22.5718 358.4212 2.00353579282651 0 COSMOS 1382 1 13295U 82064A 20357.32318387 -.00000731 00000-0 00000-0 0 9994 2 13295 66.2906 353.5822 6308226 45.4936 351.4131 2.00630763240389 0 MOLNIYA 3-20 1 13875U 83015A 20357.18538156 -.00001357 00000-0 00000-0 0 9992 2 13875 63.3790 74.9161 7257409 255.4846 20.6546 2.00571899212830 0 MOLNIYA 1-56 1 13890U 83019A 20357.51011282 .00001510 00000-0 00000-0 0 9996 2 13890 63.1586 100.3632 7242500 260.7575 79.6201 1.99866704275761 0 OV2-3 1 13912U 65108V 20358.03398025 .00010086 00000-0 87797-3 0 9990 2 13912 26.5838 295.5118 5580212 19.1488 355.3892 4.72632760470873 0 OSCAR 10 1 14129U 83058B 20353.34181840 .00000410 00000-0 00000-0 0 9998 2 14129 25.7322 185.0164 6076028 293.5805 15.3787 2.05866556254191 0 COSMOS 1481 1 14182U 83070A 20357.10447533 -.00000270 00000-0 00000-0 0 9998 2 14182 71.0091 0.2658 6117780 309.8043 10.5097 2.03584189199320 0 STTW-T1 1 14670U 84008A 20357.49611751 .00000155 00000-0 85360-4 0 9996 2 14670 36.1240 71.0965 2997839 9.9474 354.9056 8.98610790203548 0 COSMOS 1541 1 14790U 84024A 20356.50347595 .00000048 00000-0 00000-0 0 9995 2 14790 71.5950 226.8601 4810503 39.5469 94.6975 2.00537880241754 0 COSMOS 1547 1 14884U 84033A 20357.47025291 .00000251 00000-0 00000-0 0 9998 2 14884 70.5167 71.0636 6067451 334.4847 5.1783 2.00542835209158 0 COSMOS 1581 1 15095U 84071A 20357.50073436 -.00000605 00000-0 00000+0 0 9996 2 15095 65.9672 203.0508 6508492 38.8452 353.4514 1.99701585240623 0 CCE 1 (AMPTE) 1 15199U 84088A 20358.12195108 -.00000215 00000-0 00000+0 0 9996 2 15199 4.8160 332.7005 7678114 322.9947 167.3841 1.53321681169822 0 MOLNIYA 1-62 1 15214U 84089A 20356.21809827 -.00001162 00000-0 -25806-3 0 9991 2 15214 62.7135 105.9256 7386480 266.0065 15.1763 1.97944547233492 0 USA 4 1 15226U 84091A 20355.05678426 .00000643 00000-0 00000-0 0 9994 2 15226 62.5041 284.0309 6993578 280.6669 13.6473 2.00504856 10494 0 COSMOS 1596 1 15267U 84096A 20357.96382408 .00000697 00000-0 00000+0 0 9996 2 15267 66.6686 281.5062 5799849 58.8724 345.3644 2.00576212265883 0 COSMOS 1604 1 15350U 84107A 20357.45125404 .00000487 00000-0 00000-0 0 9995 2 15350 69.7098 97.2171 5915012 26.7149 354.2390 2.00721942265280 0 MOLNIYA 1-63 1 15429U 84124A 20357.16484559 .00001006 00000-0 00000-0 0 9996 2 15429 63.7764 217.9641 6546265 264.7715 330.2059 2.00806081263875 0 MOLNIYA 3-24 1 15738U 85040A 20357.36195826 .00000158 00000-0 00000-0 0 9992 2 15738 63.8381 175.9816 6532171 250.1893 32.0083 2.55627933290015 0 COSMOS 1661 1 15827U 85049A 20352.69170370 .00000863 00000-0 00000-0 0 9991 2 15827 67.8217 212.0762 5499555 112.5681 313.0155 2.00430117260051 0 COSMOS 1675 1 15952U 85071A 20358.05082840 .00000289 00000-0 21473-3 0 9997 2 15952 64.4846 126.0870 6572891 341.9442 2.7738 3.14099091326795 0 COSMOS 1684 1 16064U 85084A 20357.41453647 -.00000081 00000-0 00000-0 0 9993 2 16064 67.2125 181.7466 5507829 139.3141 278.6954 2.00817231258159 0 COSMOS 1687 1 16103U 85088A 20357.49493370 .00000673 00000-0 00000-0 0 9992 2 16103 69.5969 114.2800 5883810 36.8037 3.7156 2.00400651258064 0 COSMOS 1698 1 16183U 85098A 20357.40667944 .00000318 00000-0 00000-0 0 9998 2 16183 71.0745 189.8637 5067922 46.5433 94.1306 2.00647282257540 0 MOLNIYA 3-27 1 16393U 85117A 20357.32289522 .00000174 00000-0 00000-0 0 9996 2 16393 64.6337 145.6274 6647429 254.2097 27.9803 2.12398033262661 0 COSMOS 1729 1 16527U 86011A 20356.29141574 .00000012 00000-0 00000+0 0 9998 2 16527 70.7366 255.6251 4401876 100.1876 82.2161 2.00528815255677 0 VIKING 1 16614U 86019B 20357.49099385 .00000088 00000-0 96720-3 0 9999 2 16614 98.8020 255.7449 4698248 207.4844 348.6489 5.50559455700016 0 COSMOS 1761 1 16849U 86050A 20356.79319234 -.00000550 00000-0 00000-0 0 9992 2 16849 69.6760 148.8538 5419271 56.7983 336.7058 2.00402261252466 0 COSMOS 1783 1 16993U 86075A 20357.90816642 .00140197 -78499-8 14660-3 0 9995 2 16993 62.1625 94.2392 4967247 282.4679 28.2165 5.88938112509078 0 MOLNIYA 1-69 1 17078U 86089A 20353.07211494 -.00000795 00000-0 00000-0 0 9997 2 17078 64.0742 238.1725 6646821 264.1425 22.6225 2.00803301249857 0 COSMOS 1806 1 17213U 86098A 20355.37797244 .00000609 00000-0 00000-0 0 9998 2 17213 68.6979 227.3390 5181892 128.9771 31.0030 2.00671279249091 0 MOLNIYA 3-31 1 17328U 87008A 20356.08042751 .00000125 00000-0 00000-0 0 9995 2 17328 63.7816 187.0284 6728678 258.5021 24.6144 2.00540090244967 0 USA 21 1 17506U 87015A 20356.79970079 .00000813 00000-0 00000-0 0 9996 2 17506 62.5755 189.8320 6970441 263.0377 20.0212 2.00574717 10552 0 COSMOS 1851 1 18103U 87050A 20357.47623633 .00000020 00000-0 00000+0 0 9995 2 18103 70.7554 255.4828 4501710 99.8872 62.7827 2.00482139245684 0 COSMOS 1903 1 18701U 87105A 20352.38265634 .00000461 00000-0 00000-0 0 9998 2 18701 68.9225 280.0105 5380103 139.3116 276.8703 2.00592102242407 0 COSMOS 1922 1 18881U 88013A 20357.06111833 .00000195 00000-0 00000-0 0 9991 2 18881 68.8111 172.7102 4999307 94.7690 321.5992 2.00368100240354 0 MOLNIYA 1-71 1 18946U 88017A 20357.59674196 .00000527 00000-0 00000+0 0 9999 2 18946 63.5059 186.0055 6850488 259.6409 22.7815 2.00617669240229 0 COSMOS 1974 1 19554U 88092A 20355.92683701 -.00000050 00000-0 00000+0 0 9997 2 19554 69.9233 258.3961 4931204 119.3870 19.8418 2.00566793235979 0 COSMOS 1977 1 19608U 88096A 20356.32893237 .00000155 00000-0 00000-0 0 9999 2 19608 69.1590 201.6268 4928181 105.4192 24.8231 2.00554990235628 0 MOLNIYA 1-75 1 19807U 89014A 20356.28417058 -.00000273 00000-0 00000-0 0 9991 2 19807 64.3778 348.5257 7040575 270.2467 16.4985 2.00578848233184 0 HIPPARCOS 1 20169U 89062B 20357.41335460 -.00000176 00000-0 28765-3 0 9992 2 20169 7.3022 13.6525 7204571 257.9515 19.9144 2.26167428224077 0 COSMOS 2050 1 20330U 89091A 20357.00948990 .00000005 00000-0 00000-0 0 9996 2 20330 64.8696 250.7925 6441999 176.6959 191.7573 2.00808791227621 0 COSMOS 2063 1 20536U 90026A 20357.11959001 -.00000656 00000-0 00000-0 0 9994 2 20536 67.0171 295.6713 6045164 160.2470 240.4392 1.99589464224073 0 COSMOS 2076 1 20596U 90040A 20355.37351183 -.00000215 00000-0 00000-0 0 9990 2 20596 68.6955 294.8942 5608715 147.8924 4.4863 2.00820085224545 0 COSMOS 2087 1 20707U 90064A 20357.31312232 -.00000331 00000-0 00000-0 0 9997 2 20707 68.8551 304.1511 5717051 79.7675 336.9139 2.00276074222696 0 CRRES 1 20712U 90065A 20357.26553061 -.00000309 00000-0 10840-3 0 9996 2 20712 17.8641 83.6261 7100515 131.0274 316.1678 2.46466543260015 0 MOLNIYA 1-80 1 21118U 91012A 20357.33675180 .00000826 00000-0 00000-0 0 9992 2 21118 64.7055 34.4915 6877299 284.2590 13.2518 2.05237886219852 0 MOLNIYA 3-40 1 21196U 91022A 20357.97568578 -.00000730 00000-0 00000+0 0 9995 2 21196 64.8178 27.6031 6914377 281.0391 13.9198 2.03001373218668 0 MOLNIYA 1-81 1 21426U 91043A 20357.21213580 -.00000002 00000-0 00000-0 0 9994 2 21426 64.1261 52.9590 7063058 270.6649 16.1714 2.00605178216288 0 MOLNIYA 3-41 1 21706U 91065A 20357.69962803 -.00000379 00000-0 00000+0 0 9996 2 21706 64.1336 222.2452 6717505 262.3810 22.7693 2.04362547215856 0 STTW-5 1 21833U 91088A 20357.23333172 .00000001 00000-0 00000-0 0 9995 2 21833 31.4428 191.9123 6507290 184.5194 163.8886 2.27643107313625 0 GEOTAIL 1 22049U 92044A 20360.33729269 -.00000850 00000-0 00000-0 0 9992 2 22049 35.5328 44.5958 5480541 176.4125 1.3512 0.19262129 11920 0 MOLNIYA 3-42 1 22178U 92067A 20351.78811223 .00000031 00000-0 00000-0 0 9991 2 22178 64.7214 277.0856 6658037 275.2264 17.8614 2.20433736 68106 0 COSMOS 2222 1 22238U 92081A 20357.05753821 -.00001450 00000-0 -11941-1 0 9994 2 22238 63.4370 17.4810 7252382 200.8619 99.0022 2.00539694205690 0 COSMOS 2232 1 22321U 93006A 20356.08999871 -.00000798 00000-0 00000-0 0 9990 2 22321 67.6153 306.4542 5995826 160.1609 240.0946 2.00646676204201 0 COSMOS 2241 1 22594U 93022A 20358.12743376 .00540197 23749-6 25703-3 0 9996 2 22594 61.3743 355.6889 4269076 101.4218 308.2459 7.16805432280088 0 ARASENE 1 22654U 93031B 20357.77085528 -.00000109 00000-0 00000+0 0 9994 2 22654 1.6594 106.8348 2912331 197.2830 44.7258 1.42204665138920 0 MOLNIYA 1-86 1 22671U 93035A 20357.43155579 .00000062 00000-0 68582-4 0 9995 2 22671 63.1137 190.1495 4850320 359.4695 0.2017 5.62612983321809 0 MOLNIYA 1-87 1 22949U 93079A 20357.82381675 -.00000361 00000-0 00000+0 0 9991 2 22949 63.4521 151.9496 6788293 287.8680 12.8397 2.02856453198290 0 VEP 1 22979U 94007B 20356.96972778 -.00000260 00000-0 52995-4 0 9993 2 22979 29.2057 356.4761 7238284 250.3208 23.6213 2.25549455221061 0 SJ-4 1 22996U 94010A 20356.62530786 .00000089 00000-0 46265-4 0 9999 2 22996 28.8797 209.3565 5602980 323.4006 9.0171 4.61817526354593 0 STRV 1A 1 23125U 94034B 20358.09157574 .00010275 00000-0 89206-3 0 9992 2 23125 7.3046 115.5679 6588638 162.7003 239.8488 3.22623363267728 0 COSMOS 2286 1 23194U 94048A 20356.83833423 .00000385 00000-0 00000-0 0 9990 2 23194 67.0042 280.8594 6274903 156.2846 253.9925 2.00523594193287 0 ETS 6 1 23230U 94056A 20357.21134427 -.00000194 00000-0 00000-0 0 9990 2 23230 15.2392 32.5915 5061417 244.9846 85.3379 1.67095029160775 0 MOLNIYA 1-88 1 23420U 94081A 20357.18492488 -.00000112 00000-0 00000-0 0 9999 2 23420 64.2294 319.9422 5986430 291.5776 16.6737 3.34496929 95566 0 MOLNIYA 3-47 1 23642U 95042A 20356.58004849 .00001349 00000-0 00000+0 0 9997 2 23642 63.3454 135.4741 6812284 287.4430 12.8153 2.01948450186141 0 ISO 1 23715U 95062A 20357.26226284 -.00000059 00000-0 33051-2 0 9998 2 23715 1.0120 131.6283 8294839 229.5380 18.7662 1.02011251 93241 0 POLAR 1 23802U 96013A 20356.84166179 .00000162 00000-0 00000-0 0 9991 2 23802 78.7069 247.4837 6151213 277.0929 21.1502 1.29846271118847 0 CHINASAT 7 1 24282U 96048A 20357.64878226 -.00000152 00000-0 00000+0 0 9993 2 24282 20.4075 245.0724 3048972 181.0239 353.4120 1.06658251 97333 0 MAGION 5 1 24292U 96050B 20356.88811840 .00000060 00000-0 00000-0 0 9999 2 24292 63.1270 153.0684 5433751 239.5424 333.9745 4.14704384368134 0 INTERBALL AURORA 1 24293U 96050C 20357.05100652 .00000061 00000-0 00000-0 0 9993 2 24293 63.1258 153.0898 5434928 239.6479 55.9712 4.14714113368244 0 HALCA (MUSES B) 1 24720U 97005A 20357.44130368 -.00000047 00000-0 -12523-3 0 9991 2 24720 31.1991 119.3440 5987864 31.4771 16.2586 3.83071802332786 0 COSMOS 2340 1 24761U 97015A 20357.86371804 .00000590 00000-0 00000+0 0 9999 2 24761 66.6141 326.1199 6442063 175.6113 195.6539 2.00714555173666 0 COSMOS 2342 1 24800U 97022A 20357.37049809 -.00001172 00000-0 00000-0 0 9993 2 24800 65.3750 69.8717 7008808 174.7185 201.3707 1.99565612172446 0 MOLNIYA 1-90 1 24960U 97054A 20356.86948427 -.00000097 00000-0 68278-3 0 9991 2 24960 63.5541 291.0430 6324906 300.7997 11.9862 3.18686923190712 0 MAQSAT H 1 25023U 97066A 20357.63433076 -.00000037 00000-0 23563-3 0 9992 2 25023 7.8522 16.9389 6503656 112.5191 308.2877 3.10059779261796 0 MAQSAT B 1 25024U 97066B 20357.23908715 -.00000051 00000-0 12424-3 0 9996 2 25024 7.8967 18.2425 6522581 108.9639 353.9533 3.08839168261173 0 TEAMSAT 1 25025U 97066C 20355.60843215 .00000003 00000-0 65095-3 0 9997 2 25025 7.8574 47.5635 6532268 51.2381 19.4604 3.07957453260453 0 EQUATOR S 1 25068U 97075B 20357.44237284 -.00000287 00000-0 81527-3 0 9994 2 25068 2.2379 185.1783 8296868 107.1396 348.9079 1.07740746 90851 0 COMETS 1 25175U 98011A 20356.97677352 .00000018 00000-0 00000-0 0 9990 2 25175 30.0782 168.5740 5288334 347.6077 3.2364 4.38919439374877 0 COSMOS 2351 1 25327U 98027A 20358.07912614 -.00000819 00000-0 00000+0 0 9991 2 25327 66.0955 345.4370 6630660 187.0831 154.2658 2.00784132165799 0 MOLNIYA 1-91 1 25485U 98054A 20356.71094769 .00000047 00000-0 -75386-3 0 9993 2 25485 62.9113 238.4094 7001945 290.6381 299.8279 2.36439952165543 0 MAQSAT/ARIANE 5 1 25503U 98059A 20357.05209074 -.00000112 00000-0 90747-3 0 9995 2 25503 6.6823 224.5774 7027160 238.8990 34.5151 2.24574017181949 0 SEA LAUNCH DEMO 1 25661U 99014A 20357.71451424 -.00000169 00000-0 57247-3 0 9993 2 25661 1.6092 2.2680 7175995 272.7040 14.4715 2.23252466177372 0 MOLNIYA 3-50 1 25847U 99036A 20356.22965697 -.00000084 00000-0 -15633-4 0 9991 2 25847 62.5013 62.1402 7415589 277.6223 11.5283 2.00596158157210 0 CXO 1 25867U 99040B 20359.56728347 .00000449 00000-0 00000-0 0 9998 2 25867 58.9669 261.5546 8043893 226.4830 359.9150 0.37801647 9773 0 XMM 1 25989U 99066A 20359.01715270 -.00000254 00000-0 00000-0 0 9997 2 25989 71.0196 316.1364 6841287 91.8203 0.2030 0.50133646 12974 0 COSMOS 2368 1 26042U 99073A 20356.93521866 .00000265 00000-0 00000-0 0 9991 2 26042 66.9438 82.4297 6381886 203.4342 105.4474 2.00305277153743 0 FREGAT RB/CLUSTER 2 1 26106U 00015A 20357.35771601 .00002085 00000-0 21981-3 0 9997 2 26106 64.6058 246.2345 5663059 1.1845 359.7870 4.59029517345929 0 IMAGE 1 26113U 00017A 20357.20665145 -.00000632 00000-0 -42545-2 0 9992 2 26113 94.9345 279.9032 7685613 159.6526 268.0245 1.68649599127724 0 CLUSTER II-FM7 1 26410U 00041A 20359.32511141 .00000559 00000-0 00000+0 0 9993 2 26410 132.3225 343.1111 4637861 188.0221 359.5433 0.44218993 23180 0 CLUSTER II-FM6 1 26411U 00041B 20359.39396840 .00000632 00000-0 00000-0 0 9991 2 26411 132.6570 344.6319 6036282 193.3091 359.5075 0.44220848 11461 0 CLUSTER II-FM5 1 26463U 00045A 20359.39149448 .00000669 00000-0 00000+0 0 9991 2 26463 136.2982 344.4562 5618568 193.3016 359.5549 0.44220669 23765 0 CLUSTER II-FM8 1 26464U 00045B 20359.32476815 .00000559 00000-0 00000+0 0 9994 2 26464 132.3257 343.1055 4636076 188.0076 359.5903 0.44219822 59101 0 AMSAT OSCAR 40 1 26609U 00072B 20356.65998544 -.00000147 00000-0 00000-0 0 9991 2 26609 9.1855 350.9070 7935523 208.5428 63.4039 1.25586601 92358 0 STRV 1C 1 26610U 00072C 20356.85551063 -.00000439 00000-0 -12826-2 0 9992 2 26610 6.9983 321.9410 7351951 303.2873 6.7791 2.03499830149304 0 STRV 1D 1 26611U 00072D 20357.42377687 -.00000327 00000-0 30183-2 0 9996 2 26611 7.0065 322.7482 7353864 301.5963 297.0155 2.03365454 49742 0 LRE 1 26898U 01038A 20356.92645042 -.00000216 00000-0 57757-4 0 9998 2 26898 28.3371 241.6777 7085498 333.2474 3.4646 2.51551888168944 0 MDS 1 1 27367U 02003A 20358.03865095 .00041343 00000-0 14220-2 0 9990 2 27367 28.5630 250.5945 5052417 15.8281 355.4950 5.63437238264699 0 DASH/VEP 3 1 27368U 02003B 20356.87096412 .00000276 00000-0 64114-3 0 9998 2 27368 28.6154 263.4713 7192129 201.8818 96.9359 2.33248926158979 0 INTEGRAL 1 27540U 02048A 20353.02383066 .00000428 00000-0 00000+0 0 9996 2 27540 59.0418 98.9218 8994748 296.3743 1.9920 0.37565348 19087 0 DOUBLESTAR (TC-2) 1 28382U 04029A 20356.91497766 -.00000057 00000-0 -55447-4 0 9996 2 28382 87.3492 273.5322 7177399 199.9659 103.2051 2.34078914131312 0 DELTA 4 DEMO SPACECRAFT 1 28500U 04050A 20357.40053800 -.00000164 00000-0 00000-0 0 9993 2 28500 16.5545 0.6296 2771184 255.1165 319.5136 1.41309512 82588 0 SLOSHSAT 1 28544U 05005C 20357.33375865 .00000766 00000-0 38761-3 0 9997 2 28544 6.8946 248.4066 7082099 163.1150 245.5555 2.52426192139041 0 MAQSAT/ARIANE 5 1 28545U 05005D 20357.15155230 .00000224 00000-0 21539-3 0 9994 2 28545 6.9869 279.0057 7108422 101.9288 339.2205 2.48373815137294 0 MERIDIAN 1 1 29668U 06061A 20356.79939403 .00163753 -48624-6 61269-3 0 9997 2 29668 61.3832 250.7371 7275659 242.1617 28.5604 2.34751850102873 0 THEMIS A 1 30580U 07004A 20357.51704779 -.00000689 00000-0 00000+0 0 9997 2 30580 16.0760 31.3752 8403083 65.2685 356.1360 0.87834588 48363 0 THEMIS D 1 30797U 07004D 20357.49508538 -.00000671 00000-0 00000+0 0 9990 2 30797 13.7413 14.9190 8373744 83.4163 354.0347 0.87836805 47880 0 THEMIS E 1 30798U 07004E 20357.55471299 -.00000650 00000-0 00000+0 0 9998 2 30798 13.2238 26.3517 8367591 74.8488 354.9905 0.87841019 48296 0 SPIRALE A 1 33751U 09008C 20357.33596186 .00000099 00000-0 64571-3 0 9998 2 33751 2.0806 39.6706 5374371 318.8479 11.0672 4.58768788169912 0 SPIRALE B 1 33752U 09008D 20357.30021465 .00001383 00000-0 46332-3 0 9991 2 33752 2.1890 44.4853 6898420 294.7020 10.3555 2.76306902109948 0 MERIDIAN 2 1 35008U 09029A 20357.66844008 .00002293 00000-0 27857-3 0 9997 2 35008 63.0026 176.5575 7319861 249.8149 24.0495 2.24902641 94909 0 COSMOS 2469 1 37170U 10049A 20357.19596927 -.00001413 00000-0 -23658-2 0 9994 2 37170 64.5061 105.4666 7315621 247.1832 24.5864 2.00640677 74958 0 EUTE W3B 1 37206U 10056A 20357.57779156 .00000494 00000-0 29369-3 0 9993 2 37206 2.5613 329.7672 7091684 236.8075 36.0327 2.50949036 89421 0 MERIDIAN 3 1 37212U 10058A 20356.85146443 .00000079 00000-0 00000+0 0 9995 2 37212 63.5527 281.0187 6758411 273.1700 17.7609 2.00590520 74266 0 MERIDIAN 4 1 37398U 11018A 20357.53028438 -.00000332 00000-0 00000+0 0 9999 2 37398 63.7772 7.2324 7324163 252.9494 350.8265 2.00635923 70593 0 TACSAT 4 1 37818U 11052A 20357.30306434 .00000414 00000-0 50159-3 0 9998 2 37818 63.1335 15.8052 4632582 228.7640 72.8118 6.02814927203236 0 RBSP A 1 38752U 12046A 20357.05896647 .00003407 00000-0 52408-3 0 9996 2 38752 9.8418 278.4049 6845824 292.1450 11.5492 2.85957557 81869 0 RBSP B 1 38753U 12046B 20356.38728956 .00003200 00000-0 64544-3 0 9994 2 38753 10.0361 295.3418 6862783 259.1050 23.0639 2.82883237 81198 0 MERIDIAN 6 1 38995U 12063A 20356.66660147 .00000245 00000-0 00000-0 0 9999 2 38995 65.3128 213.5567 6460282 258.9184 27.2027 2.00579064 59361 0 MERIDIAN 7 1 40296U 14069A 20357.37981292 .00000071 00000-0 00000-0 0 9997 2 40296 63.0612 100.0759 6979567 273.2969 46.3337 2.00611275 45054 0 MMS 1 1 40482U 15011A 20347.02271236 -.00000570 00000-0 00000+0 0 9997 2 40482 31.6267 119.0743 8491054 26.5023 357.3613 0.28535818 11728 0 MMS 2 1 40483U 15011B 20354.03394249 -.00000793 00000-0 00000+0 0 9994 2 40483 31.7133 119.0303 8487766 26.7153 357.0870 0.28532956 11727 0 MMS 3 1 40484U 15011C 20349.26880407 -.00000956 00000-0 00000+0 0 9991 2 40484 31.6537 119.0785 8492315 26.5606 228.1198 0.28543162 11706 0 MMS 4 1 40485U 15011D 20344.41666667 -.00000146 00000-0 00000-0 0 9996 2 40485 31.6067 119.1341 8492858 26.3977 89.8071 0.28533920 11708 0 COSMOS 2510 1 41032U 15066A 20357.42255154 -.00000780 00000-0 00000-0 0 9999 2 41032 62.7656 226.5793 6825056 270.9874 310.5299 2.00534901 37347 0 ARASE (ERG) 1 41896U 16080A 20357.43153585 .00000191 00000-0 44777-3 0 9997 2 41896 31.6409 77.1955 7010664 275.3800 15.0241 2.53873699 37135 0 COSMOS 2518 1 42719U 17027A 20357.32669297 -.00000225 00000-0 00000-0 0 9991 2 42719 63.1535 151.9273 6805348 265.1596 65.7034 2.00591762 26212 0 PODSAT 1 43229U 18023B 20358.12039057 .00227766 84620-7 80803-3 0 9998 2 43229 26.9500 313.4367 5497354 148.7088 260.7918 4.97124479 51572 0 MERIDIAN 8 1 44453U 19046A 20358.21358770 -.00000084 00000-0 00000+0 0 9993 2 44453 62.6740 276.6884 7051777 273.3244 298.2664 2.00611205 10260 0 TDO SPACECRAFT 1 44482U 19051B 20357.42849169 .00009328 00000-0 89048-3 0 9992 2 44482 26.0877 104.4893 7247665 147.5828 291.6538 2.34712014 11678 0 CHINASAT-18 1 44493U 19053A 20358.18393798 .00016662 67163-6 88934-3 0 9993 2 44493 28.8010 320.9226 7261678 118.5942 330.9400 2.34013055 11336 0 COSMOS 2541 1 44552U 19065A 20357.52489682 -.00001305 00000-0 00000-0 0 9992 2 44552 63.7089 14.8363 7080066 269.4550 88.3577 2.00574244 9081 0 MERIDIAN 9 1 45254U 20015A 20357.24775553 .00000342 00000-0 00000-0 0 9992 2 45254 62.9312 186.7766 7034616 295.3703 123.5911 2.00602911 6135 0 COSMOS 2546 1 45608U 20031A 20358.13426139 -.00000684 00000-0 00000+0 0 9994 2 45608 63.6366 278.2893 6884727 269.5106 19.3977 2.00587478 4309 0 CHANG'E 5 1 47097U 20087A 20351.73216666 -.00107573 87118-3 10000-4 0 9999 2 47097 43.3438 35.4725 9662385 24.7881 359.9966 0.10575492 43